Location: Sternwarte_Laufen
(47.9344°N, 12.9346°E)
Time: 03:35:37
(UTC+02:00)

ISS - Pass Details

Date: 25 May 2018
Orbit: 402 x 407 km, 51.6° (Epoch: 23 May)

Event Time Altitude Azimuth Distance (km) Brightness Sun altitude
Rises 21:59:03 0° 255° (WSW) 2,317 0.4 -9.4°
Reaches altitude 10° 22:01:08 10° 258° (WSW) 1,458 -0.6 -9.6°
Maximum altitude 22:04:24 66° 342° (NNW) 444 -3.4 -10.0°
Drops below altitude 10° 22:07:39 10° 65° (ENE) 1,461 -1.2 -10.4°
Sets 22:09:45 0° 68° (ENE) 2,321 -0.2 -10.6°
